{"data":{"norad_id":52685,"intl_designator":"2022-053AF","name":"STARLINK-4029","alt_names":[],"object_type":"PAYLOAD","status":"ACTIVE","operator":null,"country":"US","launch_date":"2022-05-18","launch_site_code":"AFETR","launch_vehicle":null,"mission":null,"orbit_class":"UNKNOWN","rcs_meters":null,"size_class":null,"mass_kg":null,"dimensions":null,"purposes":["comms"],"wikipedia_slug":null,"has_3d_model":false,"image_url":null,"decayed_at":null,"tle_current":{"epoch":"2026-05-25T00:54:00.737856Z","epoch_age_seconds":67850,"freshness":"FRESH","line1":"1 52685U 22053AF  26145.03750854 -.00000103  00000+0  11606-4 0  9990","line2":"2 52685  53.2138 161.3820 0001100  73.6056 286.5057 15.08838912222644","mean_motion":15.08838912,"eccentricity":0.00011,"inclination_deg":53.2138,"raan_deg":161.382,"arg_perigee_deg":73.6056,"mean_anomaly_deg":286.5057,"bstar":1.1606e-5,"rev_number":22264,"period_min":95.437623496285,"perigee_km":538.98574733824,"apogee_km":540.50768175544,"semimajor_km":6917.8837145468,"source":"CELESTRAK","updated_at":"2026-05-25T13:38:17.235328Z"}}}